Location: Unspecified
(0.0000°N, 0.0000°E)
Time: 04:23:28
(UTC+00:00)

A-11 Canister half - Pass Details

Date: 16 April 2026
Orbit: 1523 x 1685 km, 47.3° (Epoch: 13 May)

Event Time Altitude Azimuth Distance (km) Brightness Sun altitude
Rises 00:17:21 0° 265° (W) 4,832 - -79.0°
Reaches altitude 10° 00:22:56 10° 290° (WNW) 3,878 - -78.4°
Maximum altitude 00:27:07 13° 316° (NW) 3,640 - -77.9°
Drops below altitude 10° 00:31:22 10° 342° (NNW) 3,916 - -77.3°
Sets 00:37:09 0° 7° (N) 4,918 - -76.3°
